• în România
  • Lista ţărilor
  • Pe 7 zile
  • Temperatura apei
  • Hartă satelitară
  • Meteo pe hartă
  • Widget-uri
  • user-avatar
    Intrare

    Meteo pe oră la Yulara

    Astăzi, 17 Ianuarie, Marţi

    Timp Temperatura Precipitaţii Vânt Presiune Umiditate
    00:00 +33°C° 0 mm 4 m/s 713 mmHg 21%
    01:00 +33°C° 0 mm 4 m/s 712 mmHg 21%
    02:00 +32°C° 0 mm 4 m/s 712 mmHg 21%
    03:00 +30°C° 0 mm 4 m/s 712 mmHg 20%
    04:00 +30°C° 0 mm 4 m/s 712 mmHg 22%
    05:00 +30°C° 0 mm 4 m/s 712 mmHg 23%
    06:00 +29°C° 0 mm 4 m/s 713 mmHg 25%
    07:00 +32°C° 0 mm 5 m/s 713 mmHg 29%
    08:00 +34°C° 0 mm 5 m/s 713 mmHg 33%
    09:00 +36°C° 0 mm 5 m/s 714 mmHg 37%
    10:00 +38°C° 0 mm 6 m/s 713 mmHg 35%
    11:00 +39°C° 0 mm 7 m/s 713 mmHg 32%
    12:00 +40°C° 0 mm 7 m/s 713 mmHg 30%
    13:00 +40°C° 0 mm 7 m/s 712 mmHg 30%
    14:00 +40°C° 0 mm 7 m/s 712 mmHg 30%
    15:00 +40°C° 0 mm 6 m/s 711 mmHg 30%
    16:00 +40°C° 0 mm 6 m/s 711 mmHg 31%
    17:00 +40°C° 0 mm 6 m/s 711 mmHg 32%
    18:00 +40°C° 0 mm 6 m/s 711 mmHg 32%
    19:00 +39°C° 0 mm 6 m/s 712 mmHg 35%
    20:00 +38°C° 0 mm 6 m/s 712 mmHg 38%
    21:00 +36°C° 0 mm 6 m/s 712 mmHg 41%
    22:00 +35°C° 0 mm 5 m/s 713 mmHg 44%
    23:00 +35°C° 0 mm 5 m/s 713 mmHg 47%

    Mâine, 18 Ianuarie, Miercuri

    Timp Temperatura Precipitaţii Vânt Presiune Umiditate
    00:00 +34°C° 0 mm 4 m/s 713 mmHg 50%
    01:00 +33°C° 0,1 mm 4 m/s 713 mmHg 53%
    02:00 +33°C° 0,1 mm 4 m/s 712 mmHg 56%
    03:00 +32°C° 0,1 mm 4 m/s 712 mmHg 59%
    04:00 +32°C° 0 mm 4 m/s 712 mmHg 61%
    05:00 +30°C° 0 mm 4 m/s 712 mmHg 64%
    06:00 +29°C° 0 mm 4 m/s 712 mmHg 66%
    07:00 +30°C° 0 mm 5 m/s 713 mmHg 62%
    08:00 +32°C° 0 mm 5 m/s 713 mmHg 58%
    09:00 +33°C° 0 mm 5 m/s 713 mmHg 55%
    10:00 +34°C° 0 mm 6 m/s 713 mmHg 50%
    11:00 +36°C° 0 mm 6 m/s 713 mmHg 45%
    12:00 +38°C° 0 mm 6 m/s 713 mmHg 39%
    13:00 +38°C° 0,4 mm 6 m/s 712 mmHg 40%
    14:00 +38°C° 0,4 mm 7 m/s 712 mmHg 40%
    15:00 +38°C° 0,4 mm 7 m/s 711 mmHg 40%
    16:00 +38°C° 1,7 mm 7 m/s 711 mmHg 43%
    17:00 +36°C° 1,7 mm 6 m/s 712 mmHg 45%
    18:00 +35°C° 1,7 mm 6 m/s 712 mmHg 47%
    19:00 +35°C° 1,3 mm 6 m/s 712 mmHg 49%
    20:00 +34°C° 1,3 mm 5 m/s 713 mmHg 51%
    21:00 +33°C° 1,3 mm 5 m/s 713 mmHg 54%
    22:00 +33°C° 0,2 mm 5 m/s 713 mmHg 55%
    23:00 +32°C° 0,2 mm 5 m/s 713 mmHg 56%

    Poimâine, 19 Ianuarie, Joi

    Timp Temperatura Precipitaţii Vânt Presiune Umiditate
    00:00 +32°C° 0,2 mm 5 m/s 713 mmHg 57%
    01:00 +30°C° 0 mm 5 m/s 713 mmHg 59%
    02:00 +30°C° 0 mm 5 m/s 712 mmHg 61%
    03:00 +29°C° 0 mm 5 m/s 712 mmHg 64%
    04:00 +29°C° 0 mm 5 m/s 712 mmHg 65%
    05:00 +28°C° 0 mm 6 m/s 712 mmHg 67%
    06:00 +28°C° 0 mm 6 m/s 712 mmHg 69%
    07:00 +29°C° 0 mm 7 m/s 713 mmHg 65%
    08:00 +29°C° 0 mm 8 m/s 713 mmHg 61%
    09:00 +31°C° 0 mm 9 m/s 713 mmHg 57%
    10:00 +32°C° 0 mm 9 m/s 713 mmHg 53%
    11:00 +34°C° 0 mm 9 m/s 713 mmHg 49%
    12:00 +35°C° 0 mm 9 m/s 713 mmHg 45%
    13:00 +37°C° 0,1 mm 9 m/s 712 mmHg 44%
    14:00 +37°C° 0,1 mm 9 m/s 711 mmHg 43%
    15:00 +38°C° 0,1 mm 9 m/s 711 mmHg 41%
    16:00 +37°C° 0,1 mm 9 m/s 710 mmHg 42%
    17:00 +37°C° 0,1 mm 9 m/s 710 mmHg 42%
    18:00 +37°C° 0,1 mm 8 m/s 710 mmHg 42%
    19:00 +35°C° 0 mm 8 m/s 710 mmHg 47%
    20:00 +34°C° 0 mm 7 m/s 711 mmHg 51%
    21:00 +33°C° 0 mm 7 m/s 711 mmHg 55%
    22:00 +32°C° 0 mm 7 m/s 711 mmHg 58%
    23:00 +30°C° 0 mm 6 m/s 711 mmHg 62%

    20 Ianuarie, Vineri

    Timp Temperatura Precipitaţii Vânt Presiune Umiditate
    00:00 +30°C° 0 mm 6 m/s 711 mmHg 65%
    01:00 +29°C° 0 mm 6 m/s 711 mmHg 66%
    02:00 +29°C° 0 mm 5 m/s 711 mmHg 68%
    03:00 +29°C° 0 mm 5 m/s 710 mmHg 69%
    04:00 +29°C° 0,3 mm 5 m/s 711 mmHg 70%
    05:00 +28°C° 0,3 mm 4 m/s 711 mmHg 72%
    06:00 +28°C° 0,3 mm 4 m/s 711 mmHg 73%
    07:00 +29°C° 0 mm 5 m/s 712 mmHg 69%
    08:00 +30°C° 0 mm 6 m/s 712 mmHg 64%
    09:00 +32°C° 0 mm 6 m/s 713 mmHg 60%
    10:00 +33°C° 0 mm 6 m/s 712 mmHg 56%
    11:00 +34°C° 0 mm 6 m/s 712 mmHg 51%
    12:00 +35°C° 0 mm 6 m/s 712 mmHg 47%
    13:00 +36°C° 0,1 mm 6 m/s 711 mmHg 44%
    14:00 +36°C° 0,1 mm 6 m/s 711 mmHg 42%
    15:00 +38°C° 0,1 mm 6 m/s 710 mmHg 39%
    16:00 +38°C° 0,4 mm 6 m/s 710 mmHg 40%
    17:00 +36°C° 0,4 mm 6 m/s 711 mmHg 41%
    18:00 +36°C° 0,4 mm 6 m/s 711 mmHg 42%
    19:00 +35°C° 0,8 mm 5 m/s 711 mmHg 45%
    20:00 +35°C° 0,8 mm 4 m/s 712 mmHg 49%
    21:00 +34°C° 0,8 mm 3 m/s 712 mmHg 52%
    22:00 +33°C° 0,3 mm 3 m/s 712 mmHg 54%
    23:00 +33°C° 0,3 mm 3 m/s 712 mmHg 56%

    21 Ianuarie, Sâmbătă

    Timp Temperatura Precipitaţii Vânt Presiune Umiditate
    00:00 +33°C° 0,3 mm 4 m/s 712 mmHg 57%
    01:00 +31°C° 0,2 mm 3 m/s 712 mmHg 59%
    02:00 +31°C° 0,2 mm 3 m/s 712 mmHg 61%
    03:00 +30°C° 0,2 mm 3 m/s 711 mmHg 63%
    04:00 +30°C° 0 mm 3 m/s 712 mmHg 64%
    05:00 +30°C° 0 mm 3 m/s 712 mmHg 66%
    06:00 +29°C° 0 mm 2 m/s 713 mmHg 68%
    07:00 +30°C° 0,1 mm 3 m/s 713 mmHg 63%
    08:00 +32°C° 0,1 mm 4 m/s 713 mmHg 59%
    09:00 +33°C° 0,1 mm 6 m/s 714 mmHg 55%
    10:00 +34°C° 0 mm 6 m/s 714 mmHg 51%
    11:00 +35°C° 0 mm 6 m/s 713 mmHg 47%
    12:00 +36°C° 0 mm 6 m/s 713 mmHg 43%
    13:00 +36°C° 0,2 mm 6 m/s 713 mmHg 42%
    14:00 +37°C° 0,2 mm 5 m/s 713 mmHg 41%
    15:00 +37°C° 0,2 mm 5 m/s 712 mmHg 39%
    16:00 +37°C° 0 mm 5 m/s 712 mmHg 40%
    17:00 +37°C° 0 mm 5 m/s 712 mmHg 40%
    18:00 +37°C° 0 mm 4 m/s 713 mmHg 40%
    19:00 +36°C° 0 mm 4 m/s 713 mmHg 42%
    20:00 +36°C° 0 mm 3 m/s 713 mmHg 44%
    21:00 +35°C° 0 mm 3 m/s 714 mmHg 46%
    22:00 +34°C° 0,4 mm 3 m/s 714 mmHg 49%
    23:00 +34°C° 0,4 mm 3 m/s 714 mmHg 52%

    22 Ianuarie, Duminică

    Timp Temperatura Precipitaţii Vânt Presiune Umiditate
    00:00 +33°C° 0,4 mm 3 m/s 714 mmHg 54%
    01:00 +33°C° 0,1 mm 3 m/s 713 mmHg 56%
    02:00 +31°C° 0,1 mm 2 m/s 713 mmHg 59%
    03:00 +31°C° 0,1 mm 2 m/s 713 mmHg 61%
    04:00 +31°C° 0 mm 2 m/s 713 mmHg 62%
    05:00 +30°C° 0 mm 2 m/s 714 mmHg 64%
    06:00 +30°C° 0 mm 2 m/s 714 mmHg 65%
    07:00 +31°C° 0 mm 3 m/s 714 mmHg 60%
    08:00 +33°C° 0 mm 3 m/s 715 mmHg 55%
    09:00 +34°C° 0 mm 4 m/s 715 mmHg 50%
    10:00 +35°C° 0 mm 4 m/s 714 mmHg 46%
    11:00 +37°C° 0 mm 5 m/s 714 mmHg 41%
    12:00 +39°C° 0 mm 5 m/s 714 mmHg 37%
    13:00 +39°C° 0 mm 5 m/s 713 mmHg 35%
    14:00 +40°C° 0 mm 5 m/s 713 mmHg 33%
    15:00 +40°C° 0 mm 5 m/s 712 mmHg 31%
    16:00 +40°C° 0 mm 5 m/s 712 mmHg 31%
    17:00 +40°C° 0 mm 4 m/s 713 mmHg 32%
    18:00 +40°C° 0 mm 4 m/s 713 mmHg 32%
    19:00 +38°C° 0 mm 4 m/s 713 mmHg 34%
    20:00 +37°C° 0 mm 4 m/s 713 mmHg 37%
    21:00 +37°C° 0 mm 3 m/s 714 mmHg 39%
    22:00 +36°C° 0 mm 3 m/s 714 mmHg 41%
    23:00 +35°C° 0 mm 3 m/s 714 mmHg 43%
    Arată mai mult